Location: Newark
(41.6478°N, 9.0078°E)
Time: 23:53:28
(UTC+00:00)

UWE-3 - Pass Details

Date: 31 January 2020
Orbit: 585 x 682 km, 97.6° (Epoch: 24 February)

Event Time Altitude Azimuth Distance (km) Brightness Sun altitude
Rises 04:03:03 0° 27° (NNE) 2,909 ? -29.0°
Reaches altitude 10° 04:05:39 10° 43° (NE) 2,015 ? -28.5°
Maximum altitude 04:09:05 22° 94° (E) 1,396 ? -27.9°
Drops below altitude 10° 04:12:34 10° 146° (SE) 2,050 ? -27.2°
Sets 04:15:13 0° 161° (SSE) 2,973 ? -26.7°
